Location: Bégole
(43.1574°N, 0.3291°E)
Time: 13:48:05
(UTC+00:00)

Cosmos 1763 Rocket - Pass Details

Date: 28 January 2023
Orbit: 733 x 778 km, 74.0° (Epoch: 20 March)

Event Time Altitude Azimuth Distance (km) Brightness Sun altitude
Rises 18:59:16 0° 344° (NNW) 3,234 6.9 -20.8°
Reaches altitude 10° 19:01:44 10° 349° (N) 2,297 6.0 -21.3°
Enters shadow 19:06:36 50° 57° (ENE) 954 3.6 -22.2°
